Location: Houhaj�rvi
(61.2667°N, 23.0167°E)
Time: 18:28:10
(UTC+00:00)

Cosmos 1867 - Pass Details

Date: 13 December 2019
Orbit: 777 x 799 km, 65.0° (Epoch: 17 January)

Event Time Altitude Azimuth Distance (km) Brightness Sun altitude
Rises 14:42:09 0° 299° (WNW) 3,315 7.2 -9.1°
Reaches altitude 10° 14:44:35 10° 299° (WNW) 2,384 6.5 -9.3°
Maximum altitude 14:50:06 86° 212° (SSW) 810 3.7 -9.9°
Drops below altitude 10° 14:55:34 10° 124° (SE) 2,372 5.8 -10.5°
Sets 14:57:59 0° 124° (SE) 3,297 6.5 -10.7°
